Location: ???????
(55.3754°N, 39.3545°E)
Time: 18:52:34
(UTC+00:00)

ALOS 2 - Pass Details

Date: 14 April 2026
Orbit: 630 x 632 km, 97.9° (Epoch: 19 May)

Event Time Altitude Azimuth Distance (km) Brightness Sun altitude
Exits shadow 20:17:00 62° 88° (E) 714 2.7 -23.5°
Maximum altitude 20:17:13 64° 70° (ENE) 708 2.7 -23.6°
Drops below altitude 10° 20:21:36 10° 350° (N) 2,029 6.3 -23.7°
Sets 20:23:49 0° 347° (NNW) 2,942 7.5 -23.8°
